Regional Weather Roundup
Issued by NWS

Home | Current Version | Previous Version | Text Only | Print | Product List | Glossary On
Versions: 1 2 3 4 5 6 7 8 9 10 11 12 13 14 15 16 17 18 19 20 21 22 23 24 25 26 27 28 29 30 31 32 33 34 35 36 37 38 39 40 41 42 43 44 45 46 47 48
000
ASUS42 KFFC 011503
RWRGA
WEATHER ROUNDUP FOR GEORGIA
NATIONAL WEATHER SERVICE PEACHTREE CITY GA
1100 AM EDT WED OCT 01 2014

NOTE: "FAIR" INDICATES FEW OR NO CLOUDS BELOW 12,000 FEET WITH NO
SIGNIFICANT WEATHER AND/OR OBSTRUCTIONS TO VISIBILITY.

* = USE WITH CAUTION. THE STATIONS MARKED WITH AN ASTERISK MAY NOT
REPORT WEATHER SUCH AS PRECIPITATION, FOG, OR THUNDER AND ARE NOT
QUALITY CONTROLLED BY NWS.

THE REMARK "TC" DENOTES TEMPERATURE READING IN DEGREES CELSIUS.

GAZ001>058-011600-
NORTH GEORGIA

CITY           SKY/WX    TMP DP  RH WIND       PRES   REMARKS
ATLANTA        MOSUNNY   76  61  59 CALM      30.03R
ATHENS         SUNNY     78  64  61 CALM      30.03R
CHAMBLEE       SUNNY     75  63  66 CALM      30.03R
PEACHTREE CITY SUNNY     76  67  73 CALM      30.04R
ROME           SUNNY     72  62  71 CALM      30.03S
WEST ATLANTA   SUNNY     75  63  66 CALM      30.03R
GAINESVILLE    MOSUNNY   75  63  66 VRB3      30.05S
CARTERSVILLE   SUNNY     72  63  73 CALM      30.04R


CITY           SKY/WX    TMP DP  RH WIND       PRES   REMARKS
DALTON*        MOSUNNY   64  64 100 CALM      30.04S
LAWRENCEVILLE* SUNNY     75  63  64 CALM      30.03R
MARIETTA       MOSUNNY   76  65  67 VRB3      30.03S
KENNESAW*      MOSUNNY   73  61  64 CALM      30.05R
$$

GAZ059>098-102>109-011600-
CENTRAL GEORGIA

CITY           SKY/WX    TMP DP  RH WIND       PRES   REMARKS
AUGUSTA-BUSH   SUNNY     78  65  63 NE3       30.01R
AUGUSTA-DANIEL SUNNY     78  64  61 N7        30.02S
COLUMBUS       SUNNY     72  65  78 CALM      30.01F
MACON          SUNNY     77  68  73 CALM      30.02R
ROBINS AFB     SUNNY     77  68  74 E3        30.01R


CITY           SKY/WX    TMP DP  RH WIND       PRES   REMARKS
LAGRANGE*      SUNNY     77  71  80 CALM      30.02S
SYLVANIA*      SUNNY     81  69  67 CALM      30.02S
MILLEDGEVILLE* SUNNY     77  72  83 CALM      30.02S
$$

GAZ099>101-110>166-011600-
SOUTH GEORGIA

CITY           SKY/WX    TMP DP  RH WIND       PRES   REMARKS
SAVANNAH       MOSUNNY   81  65  58 N6        30.00
VALDOSTA       CLOUDY    75  69  81 NE5       30.00R
ALMA           SUNNY     79  66  64 VRB5      30.00R
ST SIMONS      CLOUDY    75  68  78 N6        29.99R
FT STEWART     SUNNY     79  65  62 N1        29.99R
ALBANY         CLOUDY    74  67  78 NE3       30.03R
HUNTER AFB     SUNNY     80  67  65 NE6       29.98R
MOODY AFB      CLOUDY    74  68  80 NE5       30.00R
BRUNSWICK      CLOUDY    77  70  78 CALM      30.00S


CITY           SKY/WX    TMP DP  RH WIND       PRES   REMARKS
BAINBRIDGE*    PTSUNNY   77  70  78 NE5       30.00S
MOULTRIE*      CLOUDY    72  68  88 NE3       30.01S
VIDALIA*       SUNNY     79  68  69 NE3       30.01S
WAYCROSS*      CLOUDY    77  73  87 NE3       30.00S
DOUGLAS*       CLOUDY    77  68  73 E3        30.02S
$$



USA.gov is the U.S. government's official web portal to all federal, state and local government web resources and services.